Latest Coastal Weather Observations for Lihou Reef Lighthouse

IDQ60701

Issued at 11:15 am EST Sunday 20 April 2014 (issued every 10 minutes, with the page automatically refreshed every 10 minutes)

About coastal observations | Map of coastal stations | Coastal observations for QLD | Marine services | Other Formats
Station Details ID: 200880 Name: LIHOU REEF LIGHTHOUSE Lat: -17.13 Lon: 152.15 Height: 0.0 m
Data from the previous 72 hours. | See also: Recent months for locations in Queensland
Date/Time
EST
Temp

°C
Wind Pressure Rain
since 9am
mm
Weather Cloud Vis
km
Sea
Height
m
Swell
Dir
 
Speed
knots
Gust
knots
hPa Trend Height
m
Period
s
Dir
20/11:00am 27.0 ESE 18 22 1013.5 - - - - - - - - -
20/10:30am 27.0 SE 19 23 1013.9 - - - - - - - - -
20/10:00am 27.3 ESE 18 22 1014.1 - - - - - - - - -
20/09:30am 27.1 SE 19 23 1014.3 - - - - - - - - -
20/09:00am 26.6 SE 19 24 1014.0 - - - - - - - - -
20/08:30am 26.3 SE 20 25 1014.0 - - - - - - - - -
20/08:00am 26.4 SE 20 23 1013.7 - - - - - - - - -
20/07:30am 26.7 SE 18 21 1013.7 - - - - - - - - -
20/07:00am 26.5 SE 18 21 1013.2 - - - - - - - - -
20/06:30am 26.2 SE 19 22 1013.1 - - - - - - - - -
20/06:00am 26.3 ESE 18 21 1012.7 - - - - - - - - -
20/05:30am 26.2 SE 18 22 1012.5 - - - - - - - - -
20/05:00am 26.1 SE 17 21 1012.2 - - - - - - - - -
20/04:30am 26.0 SE 17 20 1012.0 - - - - - - - - -
20/04:00am 26.2 SE 18 21 1011.8 - - - - - - - - -
20/03:30am 26.3 SE 17 20 1012.1 - - - - - - - - -
20/03:00am 26.3 SE 17 20 1012.1 - - - - - - - - -
20/02:30am 26.2 SE 17 20 1012.3 - - - - - - - - -
20/02:00am 26.3 SE 16 19 1012.4 - - - - - - - - -
20/01:30am 26.2 SE 15 17 1012.5 - - - - - - - - -
20/01:00am 26.2 SE 15 17 1012.8 - - - - - - - - -
20/12:30am 26.3 SE 15 18 1013.0 - - - - - - - - -
20/12:00am 26.3 SE 15 18 1013.2 - - - - - - - - -
 
Date/Time
EST
Temp

°C
Wind Pressure Rain
since 9am
mm
Weather Cloud Vis
km
Sea
Height
m
Swell
Dir
 
Speed
knots
Gust
knots
hPa Trend Height
m
Period
s
Dir
19/11:30pm 26.4 SE 15 17 1013.5 - - - - - - - - -
19/11:00pm 26.5 SE 14 19 1013.6 - - - - - - - - -
19/10:30pm 26.4 SE 13 17 1014.0 - - - - - - - - -
19/10:00pm 26.4 SE 14 16 1013.9 - - - - - - - - -
19/09:30pm 26.3 SE 14 18 1013.9 - - - - - - - - -
19/09:00pm 26.4 ESE 14 17 1013.8 - - - - - - - - -
19/08:30pm 26.3 SE 14 17 1014.0 - - - - - - - - -
19/08:00pm 26.3 SE 15 18 1013.6 - - - - - - - - -
19/07:30pm 26.2 ESE 13 15 1013.6 - - - - - - - - -
19/07:00pm 26.1 ESE 13 16 1013.2 - - - - - - - - -
19/06:30pm 26.1 ESE 13 16 1013.0 - - - - - - - - -
19/06:00pm 26.2 ESE 14 16 1012.7 - - - - - - - - -
19/05:30pm 26.2 SE 15 17 1012.8 - - - - - - - - -
19/05:00pm 26.3 SE 15 18 1012.6 - - - - - - - - -
19/04:30pm 26.3 SE 16 19 1012.5 - - - - - - - - -
19/04:00pm 26.3 SE 16 19 1012.3 - - - - - - - - -
19/03:30pm 26.5 SE 15 18 1012.3 - - - - - - - - -
19/03:00pm 26.4 SE 14 19 1012.3 - - - - - - - - -
19/02:30pm 26.5 SE 13 16 1012.4 - - - - - - - - -
19/02:00pm 26.7 SE 14 17 1012.6 - - - - - - - - -
19/01:30pm 26.4 SE 15 18 1012.9 - - - - - - - - -
19/01:00pm 26.5 SE 15 18 1013.0 - - - - - - - - -
19/12:30pm 26.6 SE 14 16 1013.6 - - - - - - - - -
19/12:00pm 26.5 SE 15 19 1013.7 - - - - - - - - -
19/11:30am 26.6 SE 14 17 1014.2 - - - - - - - - -
19/11:00am 26.5 SE 15 19 1014.4 - - - - - - - - -
19/10:30am 26.4 SE 16 19 1014.8 - - - - - - - - -
19/10:00am 26.7 SE 16 19 1014.8 - - - - - - - - -
19/09:30am 26.7 SE 15 19 1015.1 - - - - - - - - -
19/09:00am 26.7 SE 16 19 1015.1 - - - - - - - - -
19/08:30am 26.6 SE 16 19 1015.1 - - - - - - - - -
19/08:00am 26.7 SE 16 19 1014.9 - - - - - - - - -
19/07:30am 26.7 ESE 16 18 1014.8 - - - - - - - - -
19/07:00am 26.7 SE 16 20 1014.5 - - - - - - - - -
19/06:30am 26.5 SE 16 20 1014.5 - - - - - - - - -
19/06:00am 26.2 SE 17 20 1014.1 - - - - - - - - -
19/05:30am 26.3 SE 17 20 1013.9 - - - - - - - - -
19/05:00am 26.2 SE 17 21 1013.7 - - - - - - - - -
19/04:30am 26.2 SE 18 21 1013.7 - - - - - - - - -
19/04:00am 26.2 SE 17 21 1013.5 - - - - - - - - -
19/03:30am 26.2 SE 17 22 1013.6 - - - - - - - - -
19/03:00am 26.3 SE 19 23 1013.6 - - - - - - - - -
19/02:30am 26.2 SE 18 22 1013.8 - - - - - - - - -
19/02:00am 26.1 SE 17 21 1013.9 - - - - - - - - -
19/01:30am 26.2 SE 17 21 1014.4 - - - - - - - - -
19/01:00am 26.2 SE 17 21 1014.4 - - - - - - - - -
19/12:30am 26.3 SE 17 20 1014.7 - - - - - - - - -
19/12:00am 26.3 SE 18 21 1014.7 - - - - - - - - -
 
Date/Time
EST
Temp

°C
Wind Pressure Rain
since 9am
mm
Weather Cloud Vis
km
Sea
Height
m
Swell
Dir
 
Speed
knots
Gust
knots
hPa Trend Height
m
Period
s
Dir
18/11:30pm 26.3 SE 16 20 1015.0 - - - - - - - - -
18/11:00pm 26.4 SE 14 16 1015.2 - - - - - - - - -
18/10:30pm 26.5 SE 15 18 1015.4 - - - - - - - - -
18/10:00pm 26.4 SE 15 19 1015.4 - - - - - - - - -
18/09:30pm 26.6 SE 15 19 1015.5 - - - - - - - - -
18/09:00pm 26.5 SE 14 17 1015.3 - - - - - - - - -
18/08:30pm 26.5 SE 16 18 1015.2 - - - - - - - - -
18/08:00pm 26.6 SE 15 19 1014.9 - - - - - - - - -
18/07:30pm 26.6 SE 14 17 1014.8 - - - - - - - - -
18/07:00pm 26.6 SE 15 18 1014.3 - - - - - - - - -
18/06:30pm 26.6 SE 15 18 1014.1 - - - - - - - - -
18/06:00pm 26.6 SE 15 18 1013.5 - - - - - - - - -
18/05:30pm 26.6 SE 15 18 1013.2 - - - - - - - - -
18/05:00pm 26.7 SE 16 19 1012.8 - - - - - - - - -
18/04:30pm 26.7 SE 15 17 1012.6 - - - - - - - - -
18/04:00pm 26.8 SE 16 20 1012.1 - - - - - - - - -
18/03:30pm 26.8 SE 16 20 1012.0 - - - - - - - - -
18/03:00pm 26.6 SE 16 20 1011.8 - - - - - - - - -
18/02:30pm 26.7 SE 16 19 1011.9 - - - - - - - - -
18/02:00pm 26.7 SE 16 19 1012.0 - - - - - - - - -
18/01:30pm 26.8 SE 15 18 1012.4 - - - - - - - - -
18/01:00pm 26.9 ESE 16 20 1012.3 - - - - - - - - -
18/12:30pm 26.8 ESE 16 20 1012.5 - - - - - - - - -
18/12:00pm 26.9 SE 16 19 1012.8 - - - - - - - - -
18/11:30am 26.9 SE 16 20 1013.3 - - - - - - - - -
18/11:00am 26.9 SE 17 21 1013.6 - - - - - - - - -
18/10:30am 27.1 ESE 17 21 1014.0 - - - - - - - - -
18/10:00am 27.0 ESE 17 21 1014.3 - - - - - - - - -
18/09:30am 27.0 ESE 17 20 1014.6 - - - - - - - - -
18/09:00am 26.8 ESE 17 20 1014.4 - - - - - - - - -
18/08:30am 26.9 ESE 18 22 1014.3 - - - - - - - - -
18/08:00am 26.7 ESE 18 22 1014.0 - - - - - - - - -
18/07:30am 26.7 ESE 19 23 1014.1 - - - - - - - - -
18/07:00am 26.5 ESE 19 24 1013.9 - - - - - - - - -
18/06:30am 26.6 ESE 19 22 1013.8 - - - - - - - - -
18/06:00am 26.3 ESE 19 22 1013.4 - - - - - - - - -
18/05:30am 26.5 ESE 19 21 1013.4 - - - - - - - - -
18/05:00am 26.3 SE 18 22 1013.3 - - - - - - - - -
18/04:30am 26.3 ESE 19 22 1013.0 - - - - - - - - -
18/04:00am 26.2 ESE 19 23 1012.8 - - - - - - - - -
18/03:30am 26.3 ESE 18 21 1013.0 - - - - - - - - -
18/03:00am 26.4 SE 19 22 1013.0 - - - - - - - - -
18/02:30am 26.3 SE 18 22 1013.5 - - - - - - - - -
18/02:00am 26.4 ESE 18 23 1013.6 - - - - - - - - -
18/01:30am 26.4 SE 19 22 1013.9 - - - - - - - - -
18/01:00am 26.4 SE 17 20 1014.2 - - - - - - - - -
18/12:30am 26.4 SE 18 22 1014.5 - - - - - - - - -
18/12:00am 26.3 SE 19 21 1014.7 - - - - - - - - -
 
Date/Time
EST
Temp

°C
Wind Pressure Rain
since 9am
mm
Weather Cloud Vis
km
Sea
Height
m
Swell
Dir
 
Speed
knots
Gust
knots
hPa Trend Height
m
Period
s
Dir
17/11:30pm 26.5 SE 18 21 1015.2 - - - - - - - - -
17/11:00pm 26.4 SE 17 22 1015.5 - - - - - - - - -
17/10:30pm 26.6 SE 17 21 1015.6 - - - - - - - - -
17/10:00pm 26.7 SE 18 22 1015.5 - - - - - - - - -
17/09:30pm 26.6 SE 17 21 1015.6 - - - - - - - - -
17/09:00pm 26.7 SE 17 20 1015.5 - - - - - - - - -
17/08:30pm 26.7 SE 18 21 1015.4 - - - - - - - - -
17/08:00pm 26.6 SE 18 21 1015.2 - - - - - - - - -
17/07:30pm 26.7 SE 17 20 1014.9 - - - - - - - - -
17/07:00pm 26.7 SE 18 21 1014.3 - - - - - - - - -
17/06:30pm 26.7 SE 18 22 1013.9 - - - - - - - - -
17/06:00pm 26.8 SE 18 22 1013.4 - - - - - - - - -
17/05:30pm 26.9 SE 17 20 1013.3 - - - - - - - - -
17/05:00pm 26.9 SE 18 21 1013.0 - - - - - - - - -
17/04:30pm 26.9 SE 16 19 1012.8 - - - - - - - - -
17/04:00pm 27.1 SE 17 20 1012.5 - - - - - - - - -
17/03:30pm 27.0 SE 17 20 1012.4 - - - - - - - - -
17/03:00pm 27.0 SE 16 20 1012.3 - - - - - - - - -
17/02:30pm 27.0 SE 18 21 1012.1 - - - - - - - - -
17/02:00pm 26.9 SE 18 21 1011.9 - - - - - - - - -
17/01:30pm 27.1 SE 17 20 1012.3 - - - - - - - - -
17/01:00pm 27.3 SE 17 19 1012.7 - - - - - - - - -
17/12:30pm 27.2 SE 17 20 1013.3 - - - - - - - - -
17/12:00pm 27.1 SE 16 19 1013.4 - - - - - - - - -
17/11:30am 27.2 SE 17 19 1013.7 - - - - - - - - -

Other Formats:

Comma delimited format used in spreadsheet applications
http://www.bom.gov.au/fwo/IDQ60701/IDQ60701.94293.axf

JavaScript Object Notation format (JSON) in row-major order
http://www.bom.gov.au/fwo/IDQ60701/IDQ60701.94293.json